Weather History for Peachtree City, GA

Change the Weather History Date:

Saturday, January 18, 2014

  Actual Average Record
Temperature  
Mean Temperature 36 °F 43 °F  
Max Temperature 46 °F 54 °F 64 °F (1999)
Min Temperature 25 °F 32 °F 10 °F (2003)
Degree Days  
Heating Degree Days 29 22  
Month to date heating degree days 480 410  
Since 1 July heating degree days 1597 1591  
Cooling Degree Days 0 0  
Month to date cooling degree days 0 0  
Year to date cooling degree days 0 0  
Moisture  
Dew Point 12 °F    
Average Humidity 41    
Maximum Humidity 63    
Minimum Humidity 19    
Precipitation  
Precipitation 0.00 in 0.13 in 0.28 in (1998)
Month to date precipitation 2.31 2.03  
Year to date precipitation 2.31 2.03  
Snow  
Snow 0.00 in - - ()
Month to date snowfall T  
Since 1 July snowfall T  
Snow Depth 0.00 in    
Sea Level Pressure  
Sea Level Pressure 30.14 in    
Wind  
Wind Speed 6 mph (West)    
Max Wind Speed 14 mph    
Max Gust Speed 19 mph    
Visibility 10 miles    
Events      
T = Trace of Precipitation, MM = Missing Value Source: NWS Daily Summary

Daily Weather History Graph

Daily Weather History Graph

Search for Another Location

Airport:

Trip Planner

Search our weather history database for the weather conditions in past years. The results will help you decide how hot, cold, wet, or windy it might be!

Date:

Astronomy

Jan. 18, 2014 Rise Set
Actual Time 7:41 AM EST 5:56 PM EST
Civil Twilight 7:14 AM EST 6:23 PM EST
Nautical Twilight 6:44 AM EST 6:53 PM EST
Astronomical Twilight 6:14 AM EST 7:23 PM EST
Moon 8:27 PM EST (1/18) 8:49 AM EST (1/18)
Length of Visible Light 11h 08m
Length of Day
10h 15m
Waning Gibbous, 94% of the Moon is Illuminated
Jan 18
Waning Gibbous
Jan 24
Last Quarter
Jan 30
New
Feb 6
First Quarter
Feb 14
Full

Hourly Weather History & Observations

Time (EST) Temp. Windchill Dew Point Humidity Pressure Visibility Wind Dir Wind Speed Gust Speed Precip Events Conditions
12:53 AM 30.9 °F 26.2 °F 17.1 °F 57% 30.12 in 10.0 mi WNW 4.6 mph - N/A   Clear
1:53 AM 28.9 °F 25.2 °F 17.1 °F 61% 30.13 in 10.0 mi West 3.5 mph - N/A   Clear
2:53 AM 28.0 °F 24.2 °F 17.1 °F 63% 30.14 in 10.0 mi West 3.5 mph - N/A   Clear
3:53 AM 28.0 °F 22.8 °F 16.0 °F 61% 30.15 in 10.0 mi West 4.6 mph - N/A   Clear
4:53 AM 28.0 °F 21.7 °F 15.1 °F 58% 30.15 in 10.0 mi WNW 5.8 mph - N/A   Clear
5:53 AM 28.0 °F 19.3 °F 14.0 °F 56% 30.17 in 10.0 mi WNW 9.2 mph - N/A   Clear
6:53 AM 27.0 °F 20.5 °F 15.1 °F 61% 30.18 in 10.0 mi WNW 5.8 mph - N/A   Clear
7:53 AM 25.0 °F 20.7 °F 14.0 °F 63% 30.19 in 10.0 mi WSW 3.5 mph - N/A   Clear
8:53 AM 28.0 °F 20.8 °F 15.1 °F 58% 30.22 in 10.0 mi West 6.9 mph - N/A   Clear
9:53 AM 30.0 °F 21.7 °F 14.0 °F 51% 30.25 in 10.0 mi WNW 9.2 mph - N/A   Clear
10:53 AM 33.1 °F 24.9 °F 12.0 °F 42% 30.26 in 10.0 mi WNW 10.4 mph - N/A   Clear
11:53 AM 36.0 °F 27.5 °F 10.9 °F 36% 30.24 in 10.0 mi WNW 12.7 mph - N/A   Clear
12:53 PM 39.0 °F 34.0 °F 10.0 °F 30% 30.20 in 10.0 mi Variable 6.9 mph - N/A   Clear
1:53 PM 43.0 °F 38.8 °F 9.0 °F 25% 30.16 in 10.0 mi Variable 6.9 mph - N/A   Clear
2:53 PM 44.1 °F 37.7 °F 7.0 °F 22% 30.13 in 10.0 mi WSW 12.7 mph - N/A   Clear
3:53 PM 46.0 °F 42.5 °F 7.0 °F 20% 30.11 in 10.0 mi South 6.9 mph - N/A   Clear
4:53 PM 45.0 °F 42.6 °F 8.1 °F 22% 30.09 in 10.0 mi Variable 4.6 mph - N/A   Clear
5:53 PM 43.0 °F - 8.1 °F 24% 30.09 in 10.0 mi Calm Calm - N/A   Clear
6:53 PM 35.1 °F 32.2 °F 14.0 °F 42% 30.09 in 10.0 mi South 3.5 mph - N/A   Clear
7:53 PM 37.9 °F 35.5 °F 10.9 °F 33% 30.07 in 10.0 mi South 3.5 mph - N/A   Clear
8:53 PM 37.9 °F - 10.9 °F 33% 30.06 in 10.0 mi Calm Calm - N/A   Clear
9:53 PM 37.9 °F 35.5 °F 10.9 °F 33% 30.04 in 10.0 mi South 3.5 mph - N/A   Clear
10:53 PM 39.0 °F - 12.0 °F 33% 30.06 in 10.0 mi Calm Calm - N/A   Clear
11:53 PM 39.9 °F - 14.0 °F 35% 30.04 in 10.0 mi North - - N/A   Clear